一网星座-0046星 (ONEWEB-0046 )

导读 | 星芒AI

ONEWEB-0046 是 OneWeb 卫星通信公司发射的低轨通信卫星之一,属于其全球宽带互联网星座计划的一部分。该卫星运行在约 1200 公里的近地轨道,旨在为全球用户提供高速、低延迟的互联网服务,特别是在航空、航海和偏远地区。ONEWEB-0046 采用先进通信技术,支持 Ku 和 Ka 频段,具备高容量和高可靠性,助力 OneWeb 实现其构建全球无缝连接的目标。

基本信息
目录编号:
45447
目录名称:
ONEWEB-0046
国际标识:
2020-020Z
轨道中心:
EARTH
卫星名称:
一网星座-0046星
卫星全名:
一网星座-0046星 (ONEWEB-0046 )
卫星状态:
在轨 (已飞行2093 天)
发射日期:
2020-03-21 UTC
国别 :
英国 (GB)
星等 :
--
轨道信息
数据来源 国际轨道数据 AOE轨道数据
星历时间 2025-12-13T05:42:36+0800
12小时前
查看轨道信息
2025-12-08T03:00:00+0800
5天前
查看轨道信息
半长轴 7595.834km 7595.798km
偏心率 0.0001801 0.0001863
轨道倾角 87.886° 87.884°
近地点辐角 111.297° 111.627°
升交点赤经 58.154° 59.174°
平近点角 248.835° 243.702°
近地点 1216.33km 1216.247km
远地点 1219.068km 1219.079km
周期 109.805分钟 109.804分钟
每日圈数 13.114134 13.114226
详细信息
平衡模式:
三轴稳定
覆盖范围:
全球
运营商:
一网卫星公司
运营商所在国:
英国
制造商(研发单位):
一网卫星公司
制造商所在国:
英国
使用方式:
暂无
卫星简介
OneWeb卫星网络由648颗重约125公斤的微型卫星组成,运行在1200公里的轨道上。 每颗卫星都能够提供至少每秒8千兆位的吞吐量,以使用其高吞吐量的Ku频段有效载荷为家庭和移动平台提供互联网接入。该卫星仍在工作。
2D轨道图
3D轨道图
轨道高度分析图
轨道倾角分析图
轨道综合分析图
查看轨道综合分析图